Ardmore, OK

4:57 AM CDT on August 22, 2017 (GMT -0500)
Ardmore Municipal

Weather History for KADM - February, 2014

Change the Weather History Date:

Wednesday, February 12, 2014

  Actual Average Record
Temperature  
Mean Temperature 40 °F -  
Max Temperature 51 °F 54 °F 73 °F (2009)
Min Temperature 28 °F 36 °F 19 °F (2006)
Degree Days  
Heating Degree Days 26    
Moisture  
Dew Point 30 °F    
Average Humidity 80    
Maximum Humidity 100    
Minimum Humidity 47    
Precipitation  
Precipitation 0.00 in - - ()
Sea Level Pressure  
Sea Level Pressure 30.13 in    
Wind  
Wind Speed 2 mph (WNW)    
Max Wind Speed 14 mph    
Max Gust Speed -    
Visibility 10 miles    
Events      
Averages and records for this station are not official NWS values.
T = Trace of Precipitation, MM = Missing Value Source: NWS Daily Summary

Daily Weather History Graph

Daily Weather History Graph

Search for Another Location

Airport or City:

Trip Planner

Search our weather history database for the weather conditions in past years. The results will help you decide how hot, cold, wet, or windy it might be!

Date:

Astronomy

Feb. 12, 2014 Rise Set
Actual Time 7:16 AM CST 6:08 PM CST
Civil Twilight 6:50 AM CST 6:34 PM CST
Nautical Twilight 6:20 AM CST 7:04 PM CST
Astronomical Twilight 5:51 AM CST 7:33 PM CST
Moon 4:25 PM CST (2/12) 5:31 AM CST (2/12)
Length of Visible Light 11h 44m
Length of Day
10h 52m
Waxing Gibbous, 95% of the Moon is Illuminated
Feb 12
Waxing Gibbous
Feb 14
Full
Feb 22
Last Quarter
Mar 1
New
Mar 8
First Quarter

Hourly Weather History & Observations

Time (CST) Temp. Windchill Dew Point Humidity Pressure Visibility Wind Dir Wind Speed Gust Speed Precip Events Conditions
12:15 AM 32.0 °F - 28.9 °F 88% 30.24 in 10.0 mi Calm Calm - N/A   Overcast
12:35 AM 32.0 °F - 28.6 °F 87% 30.22 in 10.0 mi Calm Calm - N/A   Overcast
12:55 AM 31.6 °F - 27.9 °F 86% 30.22 in 10.0 mi Calm Calm - N/A   Overcast
1:15 AM 31.1 °F - 28.6 °F 90% 30.19 in 10.0 mi Calm Calm - N/A   Overcast
1:35 AM 30.9 °F - 28.9 °F 92% 30.18 in 10.0 mi Calm Calm - N/A   Overcast
1:55 AM 30.0 °F - 28.4 °F 94% 30.16 in 10.0 mi Calm Calm - N/A   Overcast
2:15 AM 30.0 °F - 28.9 °F 96% 30.17 in 10.0 mi Calm Calm - N/A   Overcast
2:35 AM 30.2 °F 26.7 °F 29.3 °F 96% 30.18 in 10.0 mi WNW 3.5 mph - N/A   Overcast
2:55 AM 31.1 °F - 29.7 °F 94% 30.18 in 10.0 mi Calm Calm - N/A   Overcast
3:15 AM 31.8 °F 27.3 °F 29.5 °F 91% 30.18 in 10.0 mi West 4.6 mph - N/A   Overcast
3:35 AM 32.0 °F 27.5 °F 29.8 °F 92% 30.19 in 10.0 mi NW 4.6 mph - N/A   Overcast
3:55 AM 32.0 °F - 29.5 °F 90% 30.19 in 10.0 mi Calm Calm - N/A   Overcast
4:15 AM 32.0 °F - 28.9 °F 88% 30.19 in 10.0 mi Calm Calm - N/A   Overcast
4:35 AM 32.0 °F - 29.1 °F 89% 30.18 in 10.0 mi Calm Calm - N/A   Overcast
4:55 AM 32.0 °F - 29.3 °F 90% 30.16 in 10.0 mi Calm Calm - N/A   Overcast
5:15 AM 32.0 °F - 28.4 °F 87% 30.15 in 10.0 mi Calm Calm - N/A   Overcast
5:35 AM 32.0 °F 28.7 °F 28.9 °F 88% 30.17 in 10.0 mi NW 3.5 mph - N/A   Overcast
6:55 AM 32.0 °F - 28.4 °F 87% 30.19 in 10.0 mi Calm Calm - N/A   Overcast
7:55 AM 30.2 °F - 30.2 °F 100% 30.20 in 10.0 mi Calm Calm - N/A   Unknown
8:55 AM 33.8 °F - 30.2 °F 87% 30.20 in 10.0 mi Calm Calm - N/A   Clear
9:55 AM 39.2 °F 35.0 °F 26.6 °F 61% 30.20 in 10.0 mi West 5.8 mph - N/A   Clear
10:55 AM 41.0 °F 36.4 °F 26.6 °F 57% 30.20 in 10.0 mi West 6.9 mph - N/A   Clear
11:55 AM 44.6 °F 43.1 °F 28.4 °F 53% 30.17 in 10.0 mi WNW 3.5 mph - N/A   Clear
12:55 PM 46.4 °F - 30.2 °F 53% 30.13 in 10.0 mi Calm Calm - N/A   Clear
1:55 PM 46.4 °F - 30.2 °F 53% 30.07 in 10.0 mi Calm Calm - N/A   Clear
2:55 PM 50.0 °F - 32.0 °F 50% 30.05 in 10.0 mi West 9.2 mph - N/A   Clear
3:55 PM 51.8 °F - 32.0 °F 47% 30.03 in 10.0 mi West 9.2 mph - N/A   Clear
4:55 PM 51.8 °F - 32.0 °F 47% 30.04 in 10.0 mi WNW 13.8 mph - N/A   Clear
5:55 PM 48.2 °F - 32.0 °F 54% 30.04 in 10.0 mi WNW 9.2 mph - N/A   Clear
6:55 PM 41.0 °F 37.1 °F 32.0 °F 70% 30.04 in 10.0 mi NW 5.8 mph - N/A   Clear
7:55 PM 41.0 °F 37.1 °F 32.0 °F 70% 30.05 in 10.0 mi NW 5.8 mph - N/A   Clear
8:55 PM 37.4 °F 30.8 °F 32.0 °F 81% 30.06 in 10.0 mi North 9.2 mph - N/A   Clear
9:55 PM 35.6 °F 31.7 °F 32.0 °F 87% 30.05 in 10.0 mi North 4.6 mph - N/A   Clear
10:35 PM 32.9 °F - 29.8 °F 88% 30.05 in 10.0 mi Calm Calm - N/A   Clear
10:55 PM 34.2 °F - 30.9 °F 88% 30.05 in 10.0 mi Calm Calm - N/A   Clear
11:15 PM 32.5 °F - 29.1 °F 87% 30.04 in 10.0 mi Calm Calm - N/A   Clear
11:35 PM 28.8 °F 25.0 °F 27.5 °F 95% 30.05 in 10.0 mi SW 3.5 mph - N/A   Clear
11:55 PM 28.4 °F - 27.7 °F 97% 30.03 in 7.0 mi Calm Calm - N/A   Clear